Regional Weather Roundup
Issued by NWS

Home | Current Version | Previous Version | Text Only | Print | Product List | Glossary Off
Versions: 1 2 3 4 5 6 7 8 9 10 11 12 13 14 15 16 17 18 19 20 21 22 23 24 25 26 27 28 29 30 31 32 33 34 35 36 37 38 39 40 41 42 43 44 45 46 47 48 49 50

000
ASUS45 KBOI 011910
RWRID

IDAHO REGIONAL WEATHER ROUNDUP
NATIONAL WEATHER SERVICE BOISE ID
100 PM MDT TUE SEP 01 2015

NOTE: "FAIR" INDICATES FEW OR NO CLOUDS BELOW 12000 FEET
WITH NO SIGNIFICANT WEATHER AND/OR OBSTRUCTIONS TO VISIBILITY

IDZ012-014-012000-
SOUTHWEST IDAHO


CITY           SKY/WX    TMP DP  RH WIND       PRES   REMARKS
BOISE          SUNNY     80  39  23 CALM      29.90F
CALDWELL       SUNNY     77  45  31 N5        29.90F
MOUNTAIN HOME  SUNNY     81  40  23 E1        29.89F
$$

IDZ016-017-012000-
SOUTHCENTRAL IDAHO


CITY           SKY/WX    TMP DP  RH WIND       PRES   REMARKS
BURLEY         SUNNY     79  42  26 NE5       29.95F
JEROME         SUNNY     80  33  18 E7        29.96F
TWIN FALLS     SUNNY     82  38  20 N8        29.96F
$$

IDZ019>023-012000-
SOUTHEAST IDAHO


CITY           SKY/WX    TMP DP  RH WIND       PRES   REMARKS
IDAHO FALLS    SUNNY     80  33  18 S9        30.00F
POCATELLO      SUNNY     78  34  20 VRB5      29.99F
REXBURG        SUNNY     78  33  19 SW13      30.01F
$$

IDZ006-010-011-018-031-032-012000-
CENTRAL IDAHO MOUNTAINS


CITY           SKY/WX    TMP DP  RH WIND       PRES   REMARKS
MCCALL         SUNNY     74  39  28 S9G17     29.97F
HAILEY         SUNNY     75  43  31 SE12G18   30.04F
STANLEY          N/A     74  30  19 W8        30.06F
SALMON         SUNNY     73  39  29 N7        29.89F
CHALLIS        SUNNY     75  34  22 NE5       29.96F
$$

IDZ002-004-006-007-026-012000-
NORTHERN IDAHO


CITY           SKY/WX    TMP DP  RH WIND       PRES   REMARKS
LEWISTON       SUNNY     74  46  36 VRB5      29.87F
LOWELL           N/A     74  51  44 CALM      29.86F
COEUR D`ALENE  MOSUNNY   68  46  45 S9        29.90F
MULLAN PASS    MOSUNNY   55  40  56 VRB6      30.00F
$$



USA.gov is the U.S. government's official web portal to all federal, state and local government web resources and services.